Year,Month,Day,Hour,Minute,Value (Times are PST for temperature in C)
2014,07,13,00,00,16.80
2014,07,13,00,01,16.80
2014,07,13,00,02,16.80
2014,07,13,00,03,16.80
2014,07,13,00,04,16.80
2014,07,13,00,05,16.80
2014,07,13,00,06,16.80
2014,07,13,00,07,16.80
2014,07,13,00,08,16.80
2014,07,13,00,09,16.80
2014,07,13,00,10,16.80
2014,07,13,00,11,16.80
2014,07,13,00,12,16.70
2014,07,13,00,13,16.70
2014,07,13,00,14,16.70
2014,07,13,00,15,16.70
2014,07,13,00,16,16.70
2014,07,13,00,17,16.70
2014,07,13,00,18,16.70
2014,07,13,00,19,16.70
2014,07,13,00,20,16.70
2014,07,13,00,21,16.70
2014,07,13,00,22,16.70
2014,07,13,00,23,16.70
2014,07,13,00,24,16.70
2014,07,13,00,25,16.60
2014,07,13,00,26,16.60
2014,07,13,00,27,16.60
2014,07,13,00,28,16.70
2014,07,13,00,29,16.70
2014,07,13,00,30,16.70
2014,07,13,00,31,16.70
2014,07,13,00,32,16.70
2014,07,13,00,33,16.70
2014,07,13,00,34,16.70
2014,07,13,00,35,16.70
2014,07,13,00,36,16.70
2014,07,13,00,37,16.70
2014,07,13,00,38,16.70
2014,07,13,00,39,16.70
2014,07,13,00,40,16.70
2014,07,13,00,41,16.70
2014,07,13,00,42,16.70
2014,07,13,00,43,16.70
2014,07,13,00,44,16.60
2014,07,13,00,45,16.60
2014,07,13,00,46,16.60
2014,07,13,00,47,16.60
2014,07,13,00,48,16.60
2014,07,13,00,49,16.60
2014,07,13,00,50,16.50
2014,07,13,00,51,16.50
2014,07,13,00,52,16.50
2014,07,13,00,53,16.40
2014,07,13,00,54,16.40
2014,07,13,00,55,16.40
2014,07,13,00,56,16.40
2014,07,13,00,57,16.40
2014,07,13,00,58,16.40
2014,07,13,00,59,16.40
2014,07,13,01,00,16.40
2014,07,13,01,01,16.40
2014,07,13,01,02,16.40
2014,07,13,01,03,16.40
2014,07,13,01,04,16.40
2014,07,13,01,05,16.40
2014,07,13,01,06,16.40
2014,07,13,01,07,16.40
2014,07,13,01,08,16.40
2014,07,13,01,09,16.40
2014,07,13,01,10,16.40
2014,07,13,01,11,16.30
2014,07,13,01,12,16.30
2014,07,13,01,13,16.30
2014,07,13,01,14,16.30
2014,07,13,01,15,16.30
2014,07,13,01,16,16.30
2014,07,13,01,17,16.30
2014,07,13,01,18,16.30
2014,07,13,01,19,16.20
2014,07,13,01,20,16.20
2014,07,13,01,21,16.20
2014,07,13,01,22,16.20
2014,07,13,01,23,16.20
2014,07,13,01,24,16.20
2014,07,13,01,25,16.10
2014,07,13,01,26,16.10
2014,07,13,01,27,16.10
2014,07,13,01,28,16.10
2014,07,13,01,29,16.10
2014,07,13,01,30,16.10
2014,07,13,01,31,16.00
2014,07,13,01,32,16.00
2014,07,13,01,33,15.90
2014,07,13,01,34,15.90
2014,07,13,01,35,15.80
2014,07,13,01,36,15.80
2014,07,13,01,37,15.80
2014,07,13,01,38,15.70
2014,07,13,01,39,15.70
2014,07,13,01,40,15.70
2014,07,13,01,41,15.70
2014,07,13,01,42,15.70
2014,07,13,01,43,15.60
2014,07,13,01,44,15.60
2014,07,13,01,45,15.60
2014,07,13,01,46,15.60
2014,07,13,01,47,15.60
2014,07,13,01,48,15.50
2014,07,13,01,49,15.60
2014,07,13,01,50,15.60
2014,07,13,01,51,15.60
2014,07,13,01,52,15.50
2014,07,13,01,53,15.60
2014,07,13,01,54,15.60
2014,07,13,01,55,15.60
2014,07,13,01,56,15.60
2014,07,13,01,57,15.60
2014,07,13,01,58,15.50
2014,07,13,01,59,15.50
2014,07,13,02,00,15.50
2014,07,13,02,01,15.50
2014,07,13,02,02,15.50
2014,07,13,02,03,15.50
2014,07,13,02,04,15.50
2014,07,13,02,05,15.50
2014,07,13,02,06,15.40
2014,07,13,02,07,15.40
2014,07,13,02,08,15.50
2014,07,13,02,09,15.40
2014,07,13,02,10,15.40
2014,07,13,02,11,15.40
2014,07,13,02,12,15.40
2014,07,13,02,13,15.40
2014,07,13,02,14,15.40
2014,07,13,02,15,15.40
2014,07,13,02,16,15.40
2014,07,13,02,17,15.40
2014,07,13,02,18,15.40
2014,07,13,02,19,15.40
2014,07,13,02,20,15.40
2014,07,13,02,21,15.40
2014,07,13,02,22,15.30
2014,07,13,02,23,15.30
2014,07,13,02,24,15.30
2014,07,13,02,25,15.30
2014,07,13,02,26,15.30
2014,07,13,02,27,15.30
2014,07,13,02,28,15.30
2014,07,13,02,29,15.30
2014,07,13,02,30,15.30
2014,07,13,02,31,15.40
2014,07,13,02,32,15.40
2014,07,13,02,33,15.40
2014,07,13,02,34,15.40
2014,07,13,02,35,15.40
2014,07,13,02,36,15.40
2014,07,13,02,37,15.40
2014,07,13,02,38,15.40
2014,07,13,02,39,15.40
2014,07,13,02,40,15.40
2014,07,13,02,41,15.40
2014,07,13,02,42,15.40
2014,07,13,02,43,15.30
2014,07,13,02,44,15.30
2014,07,13,02,45,15.30
2014,07,13,02,46,15.30
2014,07,13,02,47,15.30
2014,07,13,02,48,15.30
2014,07,13,02,49,15.30
2014,07,13,02,50,15.30
2014,07,13,02,51,15.30
2014,07,13,02,52,15.30
2014,07,13,02,53,15.30
2014,07,13,02,54,15.30
2014,07,13,02,55,15.30
2014,07,13,02,56,15.30
2014,07,13,02,57,15.30
2014,07,13,02,58,15.30
2014,07,13,02,59,15.30
2014,07,13,03,00,15.20
2014,07,13,03,01,15.20
2014,07,13,03,02,15.20
2014,07,13,03,03,15.20
2014,07,13,03,04,15.20
2014,07,13,03,05,15.20
2014,07,13,03,06,15.20
2014,07,13,03,07,15.20
2014,07,13,03,08,15.10
2014,07,13,03,09,15.10
2014,07,13,03,10,15.10
2014,07,13,03,11,15.10
2014,07,13,03,12,15.10
2014,07,13,03,13,15.00
2014,07,13,03,14,15.00
2014,07,13,03,15,14.90
2014,07,13,03,16,14.90
2014,07,13,03,17,14.80
2014,07,13,03,18,14.80
2014,07,13,03,19,14.80
2014,07,13,03,20,14.70
2014,07,13,03,21,14.70
2014,07,13,03,22,14.70
2014,07,13,03,23,14.60
2014,07,13,03,24,14.60
2014,07,13,03,25,14.60
2014,07,13,03,26,14.60
2014,07,13,03,27,14.50
2014,07,13,03,28,14.50
2014,07,13,03,29,14.40
2014,07,13,03,30,14.40
2014,07,13,03,31,14.40
2014,07,13,03,32,14.40
2014,07,13,03,33,14.40
2014,07,13,03,34,14.40
2014,07,13,03,35,14.30
2014,07,13,03,36,14.30
2014,07,13,03,37,14.30
2014,07,13,03,38,14.30
2014,07,13,03,39,14.30
2014,07,13,03,40,14.30
2014,07,13,03,41,14.30
2014,07,13,03,42,14.30
2014,07,13,03,43,14.30
2014,07,13,03,44,14.30
2014,07,13,03,45,14.30
2014,07,13,03,46,14.30
2014,07,13,03,47,14.30
2014,07,13,03,48,14.20
2014,07,13,03,49,14.20
2014,07,13,03,50,14.20
2014,07,13,03,51,14.20
2014,07,13,03,52,14.20
2014,07,13,03,53,14.20
2014,07,13,03,54,14.20
2014,07,13,03,55,14.20
2014,07,13,03,56,14.20
2014,07,13,03,57,14.20
2014,07,13,03,58,14.20
2014,07,13,03,59,14.10
2014,07,13,04,00,14.10
2014,07,13,04,01,14.10
2014,07,13,04,02,14.10
2014,07,13,04,03,14.10
2014,07,13,04,04,14.10
2014,07,13,04,05,14.10
2014,07,13,04,06,14.10
2014,07,13,04,07,14.10
2014,07,13,04,08,14.10
2014,07,13,04,09,14.10
2014,07,13,04,10,14.10
2014,07,13,04,11,14.10
2014,07,13,04,12,14.10
2014,07,13,04,13,14.10
2014,07,13,04,14,14.00
2014,07,13,04,15,14.00
2014,07,13,04,16,14.00
2014,07,13,04,17,14.00
2014,07,13,04,18,14.00
2014,07,13,04,19,13.90
2014,07,13,04,20,13.90
2014,07,13,04,21,13.90
2014,07,13,04,22,13.90
2014,07,13,04,23,13.90
2014,07,13,04,24,13.90
2014,07,13,04,25,13.80
2014,07,13,04,26,13.80
2014,07,13,04,27,13.80
2014,07,13,04,28,13.80
2014,07,13,04,29,13.80
2014,07,13,04,30,13.80
2014,07,13,04,31,13.80
2014,07,13,04,32,13.70
2014,07,13,04,33,13.70
2014,07,13,04,34,13.80
2014,07,13,04,35,13.80
2014,07,13,04,36,13.80
2014,07,13,04,37,13.80
2014,07,13,04,38,13.80
2014,07,13,04,39,13.80
2014,07,13,04,40,13.80
2014,07,13,04,41,13.80
2014,07,13,04,42,13.80
2014,07,13,04,43,13.80
2014,07,13,04,44,13.80
2014,07,13,04,45,13.80
2014,07,13,04,46,13.70
2014,07,13,04,47,13.70
2014,07,13,04,48,13.70
2014,07,13,04,49,13.70
2014,07,13,04,50,13.70
2014,07,13,04,51,13.70
2014,07,13,04,52,13.70
2014,07,13,04,53,13.70
2014,07,13,04,54,13.60
2014,07,13,04,55,13.60
2014,07,13,04,56,13.60
2014,07,13,04,57,13.60
2014,07,13,04,58,13.60
2014,07,13,04,59,13.60
2014,07,13,05,00,13.70
2014,07,13,05,01,13.70
2014,07,13,05,02,13.70
2014,07,13,05,03,13.70
2014,07,13,05,04,13.70
2014,07,13,05,05,13.60
2014,07,13,05,06,13.60
2014,07,13,05,07,13.60
2014,07,13,05,08,13.60
2014,07,13,05,09,13.60
2014,07,13,05,10,13.60
2014,07,13,05,11,13.60
2014,07,13,05,12,13.60
2014,07,13,05,13,13.60
2014,07,13,05,14,13.60
2014,07,13,05,15,13.60
2014,07,13,05,16,13.60
2014,07,13,05,17,13.60
2014,07,13,05,18,13.50
2014,07,13,05,19,13.50
2014,07,13,05,20,13.40
2014,07,13,05,21,13.40
2014,07,13,05,22,13.40
2014,07,13,05,23,13.40
2014,07,13,05,24,13.30
2014,07,13,05,25,13.30
2014,07,13,05,26,13.30
2014,07,13,05,27,13.20
2014,07,13,05,28,13.20
2014,07,13,05,29,13.20
2014,07,13,05,30,13.20
2014,07,13,05,31,13.10
2014,07,13,05,32,13.10
2014,07,13,05,33,13.10
2014,07,13,05,34,13.10
2014,07,13,05,35,13.00
2014,07,13,05,36,13.00
2014,07,13,05,37,13.00
2014,07,13,05,38,13.00
2014,07,13,05,39,12.90
2014,07,13,05,40,12.90
2014,07,13,05,41,12.90
2014,07,13,05,42,12.90
2014,07,13,05,43,12.90
2014,07,13,05,44,12.90
2014,07,13,05,45,12.90
2014,07,13,05,46,12.90
2014,07,13,05,47,12.90
2014,07,13,05,48,12.90
2014,07,13,05,49,12.90
2014,07,13,05,50,12.90
2014,07,13,05,51,12.90
2014,07,13,05,52,12.90
2014,07,13,05,53,12.90
2014,07,13,05,54,12.90
2014,07,13,05,55,12.90
2014,07,13,05,56,12.90
2014,07,13,05,57,12.90
2014,07,13,05,58,12.90
2014,07,13,05,59,12.90
2014,07,13,06,00,13.00
2014,07,13,06,01,13.00
2014,07,13,06,02,13.00
2014,07,13,06,03,13.00
2014,07,13,06,04,13.00
2014,07,13,06,05,13.00
2014,07,13,06,06,13.00
2014,07,13,06,07,13.00
2014,07,13,06,08,13.00
2014,07,13,06,09,13.00
2014,07,13,06,10,12.90
2014,07,13,06,11,12.90
2014,07,13,06,12,13.00
2014,07,13,06,13,13.00
2014,07,13,06,14,13.00
2014,07,13,06,15,13.10
2014,07,13,06,16,13.10
2014,07,13,06,17,13.10
2014,07,13,06,18,13.20
2014,07,13,06,19,13.30
2014,07,13,06,20,13.30
2014,07,13,06,21,13.40
2014,07,13,06,22,13.50
2014,07,13,06,23,13.50
2014,07,13,06,24,13.60
2014,07,13,06,25,13.70
2014,07,13,06,26,13.80
2014,07,13,06,27,13.80
2014,07,13,06,28,13.90
2014,07,13,06,29,14.00
2014,07,13,06,30,14.10
2014,07,13,06,31,14.20
2014,07,13,06,32,14.30
2014,07,13,06,33,14.40
2014,07,13,06,34,14.50
2014,07,13,06,35,14.50
2014,07,13,06,36,14.60
2014,07,13,06,37,14.60
2014,07,13,06,38,14.60
2014,07,13,06,39,14.70
2014,07,13,06,40,14.70
2014,07,13,06,41,14.70
2014,07,13,06,42,14.70
2014,07,13,06,43,14.70
2014,07,13,06,44,14.80
2014,07,13,06,45,14.80
2014,07,13,06,46,14.80
2014,07,13,06,47,14.80
2014,07,13,06,48,14.90
2014,07,13,06,49,14.90
2014,07,13,06,50,14.90
2014,07,13,06,51,15.00
2014,07,13,06,52,15.00
2014,07,13,06,53,15.00
2014,07,13,06,54,15.10
2014,07,13,06,55,15.10
2014,07,13,06,56,15.10
2014,07,13,06,57,15.10
2014,07,13,06,58,15.10
2014,07,13,06,59,15.20
2014,07,13,07,00,15.20
2014,07,13,07,01,15.20
2014,07,13,07,02,15.30
2014,07,13,07,03,15.30
2014,07,13,07,04,15.30
2014,07,13,07,05,15.40
2014,07,13,07,06,15.40
2014,07,13,07,07,15.40
2014,07,13,07,08,15.40
2014,07,13,07,09,15.50
2014,07,13,07,10,15.50
2014,07,13,07,11,15.60
2014,07,13,07,12,15.60
2014,07,13,07,13,15.60
2014,07,13,07,14,15.70
2014,07,13,07,15,15.70
2014,07,13,07,16,15.80
2014,07,13,07,17,15.80
2014,07,13,07,18,15.90
2014,07,13,07,19,15.90
2014,07,13,07,20,16.00
2014,07,13,07,21,16.10
2014,07,13,07,22,16.20
2014,07,13,07,23,16.20
2014,07,13,07,24,16.30
2014,07,13,07,25,16.30
2014,07,13,07,26,16.40
2014,07,13,07,27,16.50
2014,07,13,07,28,16.50
2014,07,13,07,29,16.60
2014,07,13,07,30,16.70
2014,07,13,07,31,16.80
2014,07,13,07,32,16.90
2014,07,13,07,33,16.90
2014,07,13,07,34,16.90
2014,07,13,07,35,17.00
2014,07,13,07,36,17.00
2014,07,13,07,37,17.10
2014,07,13,07,38,17.10
2014,07,13,07,39,17.20
2014,07,13,07,40,17.20
2014,07,13,07,41,17.20
2014,07,13,07,42,17.30
2014,07,13,07,43,17.30
2014,07,13,07,44,17.40
2014,07,13,07,45,17.40
2014,07,13,07,46,17.40
2014,07,13,07,47,17.50
2014,07,13,07,48,17.50
2014,07,13,07,49,17.60
2014,07,13,07,50,17.70
2014,07,13,07,51,17.70
2014,07,13,07,52,17.80
2014,07,13,07,53,17.80
2014,07,13,07,54,17.90
2014,07,13,07,55,17.90
2014,07,13,07,56,18.00
2014,07,13,07,57,18.00
2014,07,13,07,58,18.10
2014,07,13,07,59,18.20
2014,07,13,08,00,18.20
2014,07,13,08,01,18.30
2014,07,13,08,02,18.30
2014,07,13,08,03,18.40
2014,07,13,08,04,18.40
2014,07,13,08,05,18.50
2014,07,13,08,06,18.60
2014,07,13,08,07,18.60
2014,07,13,08,08,18.70
2014,07,13,08,09,18.70
2014,07,13,08,10,18.70
2014,07,13,08,11,18.70
2014,07,13,08,12,18.80
2014,07,13,08,13,18.90
2014,07,13,08,14,18.90
2014,07,13,08,15,19.00
2014,07,13,08,16,19.10
2014,07,13,08,17,19.30
2014,07,13,08,18,19.40
2014,07,13,08,19,19.50
2014,07,13,08,20,19.70
2014,07,13,08,21,19.80
2014,07,13,08,22,19.80
2014,07,13,08,23,20.00
2014,07,13,08,24,20.10
2014,07,13,08,25,20.20
2014,07,13,08,26,20.20
2014,07,13,08,27,20.40
2014,07,13,08,28,20.50
2014,07,13,08,29,20.60
2014,07,13,08,30,20.70
2014,07,13,08,31,20.80
2014,07,13,08,32,20.90
2014,07,13,08,33,21.00
2014,07,13,08,34,21.00
2014,07,13,08,35,21.10
2014,07,13,08,36,21.10
2014,07,13,08,37,21.10
2014,07,13,08,38,21.20
2014,07,13,08,39,21.20
2014,07,13,08,40,21.20
2014,07,13,08,41,21.30
2014,07,13,08,42,21.40
2014,07,13,08,43,21.50
2014,07,13,08,44,21.50
2014,07,13,08,45,21.60
2014,07,13,08,46,21.60
2014,07,13,08,47,21.60
2014,07,13,08,48,21.60
2014,07,13,08,49,21.70
2014,07,13,08,50,21.70
2014,07,13,08,51,21.80
2014,07,13,08,52,21.80
2014,07,13,08,53,21.90
2014,07,13,08,54,21.80
2014,07,13,08,55,21.80
2014,07,13,08,56,21.80
2014,07,13,08,57,21.80
2014,07,13,08,58,21.80
2014,07,13,08,59,21.80
2014,07,13,09,00,21.80
2014,07,13,09,01,21.80
2014,07,13,09,02,21.80
2014,07,13,09,03,21.90
2014,07,13,09,04,21.90
2014,07,13,09,05,21.90
2014,07,13,09,06,22.00
2014,07,13,09,07,22.10
2014,07,13,09,08,22.10
2014,07,13,09,09,22.20
2014,07,13,09,10,22.20
2014,07,13,09,11,22.20
2014,07,13,09,12,22.30
2014,07,13,09,13,22.40
2014,07,13,09,14,22.50
2014,07,13,09,15,22.60
2014,07,13,09,16,22.70
2014,07,13,09,17,22.90
2014,07,13,09,18,23.00
2014,07,13,09,19,23.20
2014,07,13,09,20,23.30
2014,07,13,09,21,23.40
2014,07,13,09,22,23.50
2014,07,13,09,23,23.70
2014,07,13,09,24,23.80
2014,07,13,09,25,23.90
2014,07,13,09,26,24.00
2014,07,13,09,27,24.00
2014,07,13,09,28,24.10
2014,07,13,09,29,24.20
2014,07,13,09,30,24.30
2014,07,13,09,31,24.30
2014,07,13,09,32,24.30
2014,07,13,09,33,24.40
2014,07,13,09,34,24.40
2014,07,13,09,35,24.50
2014,07,13,09,36,24.60
2014,07,13,09,37,24.70
2014,07,13,09,38,24.70
2014,07,13,09,39,24.70
2014,07,13,09,40,24.80
2014,07,13,09,41,24.90
2014,07,13,09,42,24.90
2014,07,13,09,43,25.00
2014,07,13,09,44,25.10
2014,07,13,09,45,25.10
2014,07,13,09,46,25.10
2014,07,13,09,47,25.10
2014,07,13,09,48,25.20
2014,07,13,09,49,25.20
2014,07,13,09,50,25.10
2014,07,13,09,51,25.00
2014,07,13,09,52,25.00
2014,07,13,09,53,25.10
2014,07,13,09,54,25.10
2014,07,13,09,55,25.20
2014,07,13,09,56,25.20
2014,07,13,09,57,25.20
2014,07,13,09,58,25.20
2014,07,13,09,59,25.30
2014,07,13,10,00,25.30
2014,07,13,10,01,25.40
2014,07,13,10,02,25.40
2014,07,13,10,03,25.40
2014,07,13,10,04,25.30
2014,07,13,10,05,25.30
2014,07,13,10,06,25.20
2014,07,13,10,07,25.10
2014,07,13,10,08,25.00
2014,07,13,10,09,24.90
2014,07,13,10,10,24.90
2014,07,13,10,11,24.80
2014,07,13,10,12,24.70
2014,07,13,10,13,24.60
2014,07,13,10,14,24.50
2014,07,13,10,15,24.50
2014,07,13,10,16,24.50
2014,07,13,10,17,24.60
2014,07,13,10,18,24.60
2014,07,13,10,19,24.60
2014,07,13,10,20,24.70
2014,07,13,10,21,24.80
2014,07,13,10,22,24.80
2014,07,13,10,23,24.80
2014,07,13,10,24,24.90
2014,07,13,10,25,24.90
2014,07,13,10,26,25.00
2014,07,13,10,27,25.00
2014,07,13,10,28,25.00
2014,07,13,10,29,25.00
2014,07,13,10,30,25.10
2014,07,13,10,31,25.20
2014,07,13,10,32,25.20
2014,07,13,10,33,25.20
2014,07,13,10,34,25.10
2014,07,13,10,35,25.10
2014,07,13,10,36,25.00
2014,07,13,10,37,24.90
2014,07,13,10,38,24.80
2014,07,13,10,39,24.70
2014,07,13,10,40,24.70
2014,07,13,10,41,24.70
2014,07,13,10,42,24.70
2014,07,13,10,43,24.70
2014,07,13,10,44,24.80
2014,07,13,10,45,24.80
2014,07,13,10,46,24.80
2014,07,13,10,47,24.80
2014,07,13,10,48,24.90
2014,07,13,10,49,24.90
2014,07,13,10,50,24.90
2014,07,13,10,51,25.00
2014,07,13,10,52,25.10
2014,07,13,10,53,25.20
2014,07,13,10,54,25.20
2014,07,13,10,55,25.20
2014,07,13,10,56,25.10
2014,07,13,10,57,25.10
2014,07,13,10,58,25.00
2014,07,13,10,59,25.00
2014,07,13,11,00,24.90
2014,07,13,11,01,24.70
2014,07,13,11,02,24.60
2014,07,13,11,03,24.60
2014,07,13,11,04,24.60
2014,07,13,11,05,24.60
2014,07,13,11,06,24.60
2014,07,13,11,07,24.60
2014,07,13,11,08,24.50
2014,07,13,11,09,24.50
2014,07,13,11,10,24.60
2014,07,13,11,11,24.60
2014,07,13,11,12,24.70
2014,07,13,11,13,24.80
2014,07,13,11,14,24.80
2014,07,13,11,15,24.80
2014,07,13,11,16,24.80
2014,07,13,11,17,24.90
2014,07,13,11,18,25.00
2014,07,13,11,19,25.10
2014,07,13,11,20,25.20
2014,07,13,11,21,25.30
2014,07,13,11,22,25.40
2014,07,13,11,23,25.50
2014,07,13,11,24,25.60
2014,07,13,11,25,25.80
2014,07,13,11,26,25.90
2014,07,13,11,27,26.00
2014,07,13,11,28,26.20
2014,07,13,11,29,26.30
2014,07,13,11,30,26.30
2014,07,13,11,31,26.40
2014,07,13,11,32,26.50
2014,07,13,11,33,26.50
2014,07,13,11,34,26.40
2014,07,13,11,35,26.40
2014,07,13,11,36,26.40
2014,07,13,11,37,26.50
2014,07,13,11,38,26.50
2014,07,13,11,39,26.50
2014,07,13,11,40,26.60
2014,07,13,11,41,26.60
2014,07,13,11,42,26.60
2014,07,13,11,43,26.70
2014,07,13,11,44,26.70
2014,07,13,11,45,26.80
2014,07,13,11,46,26.90
2014,07,13,11,47,27.00
2014,07,13,11,48,26.90
2014,07,13,11,49,26.70
2014,07,13,11,50,26.40
2014,07,13,11,51,26.20
2014,07,13,11,52,26.10
2014,07,13,11,53,26.00
2014,07,13,11,54,25.90
2014,07,13,11,55,25.90
2014,07,13,11,56,25.80
2014,07,13,11,57,25.60
2014,07,13,11,58,25.50
2014,07,13,11,59,25.40
2014,07,13,12,00,25.30
2014,07,13,12,01,25.20
2014,07,13,12,02,25.20
2014,07,13,12,03,25.10
2014,07,13,12,04,25.00
2014,07,13,12,05,24.90
2014,07,13,12,06,24.80
2014,07,13,12,07,24.60
2014,07,13,12,08,24.50
2014,07,13,12,09,24.30
2014,07,13,12,10,24.30
2014,07,13,12,11,24.20
2014,07,13,12,12,24.10
2014,07,13,12,13,24.10
2014,07,13,12,14,24.10
2014,07,13,12,15,24.10
2014,07,13,12,16,24.10
2014,07,13,12,17,24.10
2014,07,13,12,18,24.00
2014,07,13,12,19,23.90
2014,07,13,12,20,24.00
2014,07,13,12,21,24.10
2014,07,13,12,22,24.20
2014,07,13,12,23,24.30
2014,07,13,12,24,24.40
2014,07,13,12,25,24.50
2014,07,13,12,26,24.60
2014,07,13,12,27,24.60
2014,07,13,12,28,24.80
2014,07,13,12,29,25.00
2014,07,13,12,30,25.20
2014,07,13,12,31,25.30
2014,07,13,12,32,25.40
2014,07,13,12,33,25.40
2014,07,13,12,34,25.50
2014,07,13,12,35,25.60
2014,07,13,12,36,25.80
2014,07,13,12,37,25.90
2014,07,13,12,38,25.90
2014,07,13,12,39,25.80
2014,07,13,12,40,25.90
2014,07,13,12,41,26.00
2014,07,13,12,42,26.00
2014,07,13,12,43,25.80
2014,07,13,12,44,25.70
2014,07,13,12,45,25.50
2014,07,13,12,46,25.30
2014,07,13,12,47,25.10
2014,07,13,12,48,25.00
2014,07,13,12,49,24.90
2014,07,13,12,50,24.90
2014,07,13,12,51,24.90
2014,07,13,12,52,25.00
2014,07,13,12,53,25.10
2014,07,13,12,54,25.30
2014,07,13,12,55,25.50
2014,07,13,12,56,25.70
2014,07,13,12,57,25.80
2014,07,13,12,58,25.80
2014,07,13,12,59,26.00
2014,07,13,13,00,26.10
2014,07,13,13,01,26.20
2014,07,13,13,02,26.30
2014,07,13,13,03,26.30
2014,07,13,13,04,26.40
2014,07,13,13,05,26.60
2014,07,13,13,06,26.70
2014,07,13,13,07,26.80
2014,07,13,13,08,26.90
2014,07,13,13,09,26.90
2014,07,13,13,10,26.90
2014,07,13,13,11,27.00
2014,07,13,13,12,27.10
2014,07,13,13,13,27.20
2014,07,13,13,14,27.30
2014,07,13,13,15,27.40
2014,07,13,13,16,27.40
2014,07,13,13,17,27.40
2014,07,13,13,18,27.30
2014,07,13,13,19,27.20
2014,07,13,13,20,27.30
2014,07,13,13,21,27.30
2014,07,13,13,22,27.30
2014,07,13,13,23,27.30
2014,07,13,13,24,27.30
2014,07,13,13,25,27.40
2014,07,13,13,26,27.60
2014,07,13,13,27,27.80
2014,07,13,13,28,28.00
2014,07,13,13,29,28.20
2014,07,13,13,30,28.40
2014,07,13,13,31,28.60
2014,07,13,13,32,28.70
2014,07,13,13,33,28.80
2014,07,13,13,34,28.80
2014,07,13,13,35,28.80
2014,07,13,13,36,28.80
2014,07,13,13,37,28.90
2014,07,13,13,38,29.00
2014,07,13,13,39,29.10
2014,07,13,13,40,29.10
2014,07,13,13,41,29.20
2014,07,13,13,42,29.20
2014,07,13,13,43,29.30
2014,07,13,13,44,29.30
2014,07,13,13,45,29.30
2014,07,13,13,46,29.20
2014,07,13,13,47,29.10
2014,07,13,13,48,29.10
2014,07,13,13,49,29.10
2014,07,13,13,50,29.10
2014,07,13,13,51,29.20
2014,07,13,13,52,29.20
2014,07,13,13,53,29.20
2014,07,13,13,54,29.10
2014,07,13,13,55,29.10
2014,07,13,13,56,29.00
2014,07,13,13,57,29.00
2014,07,13,13,58,29.00
2014,07,13,13,59,29.10
2014,07,13,14,00,29.20
2014,07,13,14,01,29.20
2014,07,13,14,02,29.20
2014,07,13,14,03,29.20
2014,07,13,14,04,29.00
2014,07,13,14,05,28.90
2014,07,13,14,06,28.80
2014,07,13,14,07,28.70
2014,07,13,14,08,28.50
2014,07,13,14,09,28.50
2014,07,13,14,10,28.50
2014,07,13,14,11,28.50
2014,07,13,14,12,28.40
2014,07,13,14,13,28.40
2014,07,13,14,14,28.40
2014,07,13,14,15,28.40
2014,07,13,14,16,28.40
2014,07,13,14,17,28.40
2014,07,13,14,18,28.50
2014,07,13,14,19,28.50
2014,07,13,14,20,28.50
2014,07,13,14,21,28.50
2014,07,13,14,22,28.50
2014,07,13,14,23,28.50
2014,07,13,14,24,28.40
2014,07,13,14,25,28.40
2014,07,13,14,26,28.30
2014,07,13,14,27,28.30
2014,07,13,14,28,28.40
2014,07,13,14,29,28.50
2014,07,13,14,30,28.50
2014,07,13,14,31,28.50
2014,07,13,14,32,28.50
2014,07,13,14,33,28.50
2014,07,13,14,34,28.40
2014,07,13,14,35,28.20
2014,07,13,14,36,28.20
2014,07,13,14,37,28.20
2014,07,13,14,38,28.10
2014,07,13,14,39,28.20
2014,07,13,14,40,28.20
2014,07,13,14,41,28.20
2014,07,13,14,42,28.30
2014,07,13,14,43,28.30
2014,07,13,14,44,28.40
2014,07,13,14,45,28.50
2014,07,13,14,46,28.60
2014,07,13,14,47,28.60
2014,07,13,14,48,28.60
2014,07,13,14,49,28.70
2014,07,13,14,50,28.80
2014,07,13,14,51,28.70
2014,07,13,14,52,28.70
2014,07,13,14,53,28.70
2014,07,13,14,54,28.70
2014,07,13,14,55,28.70
2014,07,13,14,56,28.70
2014,07,13,14,57,28.60
2014,07,13,14,58,28.40
2014,07,13,14,59,28.40
2014,07,13,15,00,28.40
2014,07,13,15,01,28.50
2014,07,13,15,02,28.40
2014,07,13,15,03,28.40
2014,07,13,15,04,28.30
2014,07,13,15,05,28.40
2014,07,13,15,06,28.40
2014,07,13,15,07,28.30
2014,07,13,15,08,28.30
2014,07,13,15,09,28.30
2014,07,13,15,10,28.30
2014,07,13,15,11,28.30
2014,07,13,15,12,28.30
2014,07,13,15,13,28.30
2014,07,13,15,14,28.20
2014,07,13,15,15,28.20
2014,07,13,15,16,28.10
2014,07,13,15,17,28.00
2014,07,13,15,18,28.00
2014,07,13,15,19,28.00
2014,07,13,15,20,28.00
2014,07,13,15,21,27.90
2014,07,13,15,22,27.80
2014,07,13,15,23,27.70
2014,07,13,15,24,27.60
2014,07,13,15,25,27.50
2014,07,13,15,26,27.30
2014,07,13,15,27,27.20
2014,07,13,15,28,27.10
2014,07,13,15,29,27.10
2014,07,13,15,30,27.00
2014,07,13,15,31,26.90
2014,07,13,15,32,26.90
2014,07,13,15,33,26.80
2014,07,13,15,34,26.90
2014,07,13,15,35,26.90
2014,07,13,15,36,26.90
2014,07,13,15,37,27.00
2014,07,13,15,38,27.10
2014,07,13,15,39,27.10
2014,07,13,15,40,27.10
2014,07,13,15,41,27.10
2014,07,13,15,42,27.00
2014,07,13,15,43,27.00
2014,07,13,15,44,27.00
2014,07,13,15,45,27.00
2014,07,13,15,46,27.00
2014,07,13,15,47,27.10
2014,07,13,15,48,27.10
2014,07,13,15,49,27.10
2014,07,13,15,50,27.10
2014,07,13,15,51,27.00
2014,07,13,15,52,27.00
2014,07,13,15,53,27.00
2014,07,13,15,54,27.10
2014,07,13,15,55,27.00
2014,07,13,15,56,26.90
2014,07,13,15,57,26.80
2014,07,13,15,58,26.80
2014,07,13,15,59,26.70
2014,07,13,16,00,26.80
2014,07,13,16,01,26.90
2014,07,13,16,02,27.00
2014,07,13,16,03,27.00
2014,07,13,16,04,27.00
2014,07,13,16,05,27.00
2014,07,13,16,06,27.00
2014,07,13,16,07,27.10
2014,07,13,16,08,27.10
2014,07,13,16,09,27.10
2014,07,13,16,10,27.20
2014,07,13,16,11,27.30
2014,07,13,16,12,27.40
2014,07,13,16,13,27.40
2014,07,13,16,14,27.40
2014,07,13,16,15,27.50
2014,07,13,16,16,27.60
2014,07,13,16,17,27.60
2014,07,13,16,18,27.70
2014,07,13,16,19,27.70
2014,07,13,16,20,27.70
2014,07,13,16,21,27.70
2014,07,13,16,22,27.70
2014,07,13,16,23,27.70
2014,07,13,16,24,27.70
2014,07,13,16,25,27.70
2014,07,13,16,26,27.80
2014,07,13,16,27,27.80
2014,07,13,16,28,27.80
2014,07,13,16,29,27.80
2014,07,13,16,30,27.70
2014,07,13,16,31,27.70
2014,07,13,16,32,27.60
2014,07,13,16,33,27.60
2014,07,13,16,34,27.70
2014,07,13,16,35,27.70
2014,07,13,16,36,27.70
2014,07,13,16,37,27.80
2014,07,13,16,38,27.80
2014,07,13,16,39,27.90
2014,07,13,16,40,27.90
2014,07,13,16,41,27.90
2014,07,13,16,42,27.90
2014,07,13,16,43,27.90
2014,07,13,16,44,28.00
2014,07,13,16,45,28.00
2014,07,13,16,46,28.10
2014,07,13,16,47,28.20
2014,07,13,16,48,28.30
2014,07,13,16,49,28.50
2014,07,13,16,50,28.50
2014,07,13,16,51,28.60
2014,07,13,16,52,28.60
2014,07,13,16,53,28.70
2014,07,13,16,54,28.70
2014,07,13,16,55,28.80
2014,07,13,16,56,28.80
2014,07,13,16,57,28.70
2014,07,13,16,58,28.70
2014,07,13,16,59,28.60
2014,07,13,17,00,28.60
2014,07,13,17,01,28.50
2014,07,13,17,02,28.40
2014,07,13,17,03,28.40
2014,07,13,17,04,28.40
2014,07,13,17,05,28.40
2014,07,13,17,06,28.20
2014,07,13,17,07,28.20
2014,07,13,17,08,28.10
2014,07,13,17,09,28.00
2014,07,13,17,10,27.90
2014,07,13,17,11,27.90
2014,07,13,17,12,27.90
2014,07,13,17,13,27.80
2014,07,13,17,14,27.80
2014,07,13,17,15,27.80
2014,07,13,17,16,27.80
2014,07,13,17,17,27.70
2014,07,13,17,18,27.70
2014,07,13,17,19,27.70